ETD646 HUEN-OMAA

Flight info

Callsign ETD646
Flight time N/A
Altitude 37000
Route IMVIP2B IMVIP UM216 DUSKU/N0493F390 UM216 HARGA UB404 DEMGO B404 RIGAM B400 DAXAM Y414 DEDSO R401 VELIK/N0493F400 R401 DOLFI P558 SODEX N563 NOBTO
Aircraft B789/H-SDE1E2E3FGHIJ2J3J4J5M1RWXY/LB1D1

Departure

Time 2026-04-26 12:52
Airport Entebbe International Airport (HUEN)

Arrival

Time N/A
Airport Zayed International Airport (OMAA)
Time Latitude Longitude Altitude Speed Heading
2026-04-26 12:16 0.04456 32.44182 3785 ft 0 kts 83°
2026-04-26 12:41 0.04452 32.44161 3791 ft 4 kts 71°
2026-04-26 12:41 0.04440 32.44137 3796 ft 4 kts 50°
2026-04-26 12:41 0.04421 32.44120 3792 ft 4 kts 21°
2026-04-26 12:42 0.04398 32.44116 3792 ft 1 kts 351°
2026-04-26 12:46 0.04403 32.44115 3786 ft 2 kts 351°
2026-04-26 12:46 0.04421 32.44113 3789 ft 4 kts 353°
2026-04-26 12:46 0.04458 32.44109 3790 ft 7 kts 353°
2026-04-26 12:47 0.04519 32.44100 3787 ft 11 kts 352°
2026-04-26 12:47 0.04602 32.44089 3790 ft 13 kts 352°
2026-04-26 12:47 0.04695 32.44076 3788 ft 14 kts 352°
2026-04-26 12:47 0.04796 32.44063 3793 ft 15 kts 352°
2026-04-26 12:48 0.04883 32.44024 3793 ft 14 kts 332°
2026-04-26 12:48 0.04981 32.44000 3781 ft 16 kts 352°
2026-04-26 12:48 0.05096 32.43983 3785 ft 17 kts 353°
2026-04-26 12:48 0.05206 32.43967 3783 ft 14 kts 351°
2026-04-26 12:49 0.05280 32.43944 3792 ft 10 kts 330°
2026-04-26 12:49 0.05314 32.43915 3793 ft 9 kts 312°
2026-04-26 12:49 0.05355 32.43855 3794 ft 12 kts 301°
2026-04-26 12:49 0.05408 32.43773 3796 ft 16 kts 304°
2026-04-26 12:50 0.05482 32.43694 3800 ft 14 kts 312°
2026-04-26 12:50 0.05494 32.43653 3793 ft 2 kts 246°
2026-04-26 12:50 0.05475 32.43639 3794 ft 5 kts 201°
2026-04-26 12:50 0.05425 32.43640 3790 ft 10 kts 172°
2026-04-26 12:51 0.05312 32.43658 3795 ft 23 kts 170°
2026-04-26 12:51 0.05012 32.43698 3788 ft 77 kts 172°
2026-04-26 12:51 0.04227 32.43805 3791 ft 149 kts 172°
2026-04-26 12:51 0.03025 32.43990 4063 ft 184 kts 167°
2026-04-26 12:52 0.01856 32.44271 5245 ft 166 kts 164°
2026-04-26 12:52 0.00695 32.44498 5737 ft 172 kts 173°
2026-04-26 12:52 -0.00540 32.44668 6027 ft 184 kts 174°
2026-04-26 12:52 -0.01863 32.44777 6460 ft 193 kts 176°
2026-04-26 12:53 -0.03200 32.44857 7043 ft 194 kts 175°
2026-04-26 12:53 -0.04553 32.45014 7557 ft 197 kts 172°
2026-04-26 12:53 -0.05917 32.45211 8099 ft 199 kts 171°
2026-04-26 12:53 -0.07299 32.45408 8573 ft 204 kts 171°
2026-04-26 12:54 -0.08795 32.45617 8695 ft 231 kts 171°
2026-04-26 12:54 -0.10430 32.46032 8781 ft 258 kts 149°
2026-04-26 12:54 -0.11727 32.47368 8951 ft 283 kts 116°
2026-04-26 12:54 -0.12062 32.49289 9661 ft 287 kts 82°
2026-04-26 12:55 -0.11601 32.51261 10128 ft 301 kts 73°
2026-04-26 12:55 -0.10895 32.53327 10240 ft 327 kts 71°
2026-04-26 12:55 -0.10151 32.55563 10307 ft 351 kts 73°
2026-04-26 12:55 -0.09444 32.57980 10407 ft 372 kts 75°
2026-04-26 12:56 -0.08482 32.60348 10980 ft 374 kts 58°
2026-04-26 12:56 -0.06780 32.62315 11582 ft 378 kts 44°
2026-04-26 12:56 -0.04757 32.64022 12165 ft 382 kts 39°
2026-04-26 12:56 -0.02680 32.65685 12787 ft 384 kts 40°
2026-04-26 12:57 -0.00697 32.67481 13384 ft 386 kts 45°
2026-04-26 12:57 0.01205 32.69378 14026 ft 388 kts 45°
2026-04-26 12:57 0.03159 32.71251 14535 ft 391 kts 44°
2026-04-26 12:58 0.07198 32.74957 15543 ft 397 kts 44°
2026-04-26 12:58 0.09212 32.76859 16016 ft 400 kts 44°
2026-04-26 12:58 0.11237 32.78770 16485 ft 403 kts 44°
2026-04-26 12:58 0.13300 32.80696 16948 ft 406 kts 44°
2026-04-26 12:59 0.15373 32.82627 17398 ft 409 kts 44°
2026-04-26 12:59 0.17459 32.84581 17853 ft 412 kts 44°
2026-04-26 12:59 0.19561 32.86552 18268 ft 415 kts 44°
2026-04-26 12:59 0.21677 32.88533 18623 ft 418 kts 44°
2026-04-26 13:00 0.23802 32.90519 18927 ft 422 kts 44°
2026-04-26 13:00 0.25955 32.92534 19289 ft 424 kts 44°
2026-04-26 13:00 0.28110 32.94551 19649 ft 426 kts 44°
2026-04-26 13:00 0.30272 32.96575 19996 ft 428 kts 44°
2026-04-26 13:01 0.32459 32.98622 20332 ft 430 kts 44°
2026-04-26 13:01 0.34614 33.00637 20688 ft 432 kts 44°
2026-04-26 13:01 0.36811 33.02694 21043 ft 433 kts 44°
2026-04-26 13:01 0.39013 33.04756 21341 ft 436 kts 44°
2026-04-26 13:02 0.41230 33.06831 21684 ft 437 kts 44°
2026-04-26 13:02 0.43456 33.08913 21947 ft 440 kts 44°
2026-04-26 13:02 0.45691 33.11006 22270 ft 441 kts 44°
2026-04-26 13:02 0.47937 33.13108 22540 ft 444 kts 44°